FW5345 Weather Reports


Display with metric or nautical units.
time (UTC)temp
F
wind
direction
speed
MPH
gust
MPH
rain 1hr
in
rain 24hr
in
rain mn
in
humidity
%
barometer
mb
20260510023033 70 292 0.0 0.0 0.00 0.00 0.00 42 1016.7
20260510021535 71 292 0.0 0.0 0.00 0.00 0.00 42 1016.6
20260510020145 72 292 0.0 0.0 0.00 0.00 0.00 38 1016.6
20260510014645 73 292 1.0 2.0 0.00 0.00 0.00 34 1016.9
20260510013143 73 292 0.0 2.0 0.00 0.00 0.00 34 1017.0
20260510011531 73 293 1.0 6.0 0.00 0.00 0.00 34 1017.1
20260510010033 73 301 3.0 5.0 0.00 0.00 0.00 34 1017.1
20260510004535 74 298 3.0 6.0 0.00 0.00 0.00 34 1017.1
20260510003034 74 311 3.0 7.0 0.00 0.00 0.00 36 1017.2
20260510001535 74 310 4.0 8.0 0.00 0.00 0.00 38 1017.2
20260510000036 74 317 4.0 8.0 0.00 0.00 0.00 38 1017.3
20260509234534 74 319 5.0 9.0 0.00 0.00 0.00 39 1017.5
20260509233035 74 337 5.0 9.0 0.00 0.00 0.00 39 1017.6
20260509231536 73 300 4.0 10.0 0.00 0.00 0.00 41 1018.1
20260509224531 73 329 4.0 9.0 0.00 0.00 0.00 40 1018.4
20260509223031 73 338 3.0 9.0 0.00 0.00 0.00 41 1018.7
20260509221642 72 327 4.0 10.0 0.00 0.00 0.00 42 1018.9
20260509220036 71 305 5.0 11.0 0.00 0.00 0.00 44 1019.0
20260509214533 71 326 5.0 10.0 0.00 0.00 0.00 46 1019.1
20260509213035 71 322 4.0 11.0 0.00 0.00 0.00 48 1019.3
20260509211536 70 325 3.0 7.0 0.00 0.00 0.00 49 1019.5
20260509210034 70 329 5.0 11.0 0.00 0.00 0.00 49 1019.7
20260509203151 68 333 4.0 10.0 0.00 0.00 0.00 52 1019.9
20260509201533 68 329 5.0 9.0 0.00 0.00 0.00 53 1020.1
20260509200035 67 341 3.0 8.0 0.00 0.00 0.00 54 1020.3
20260509194642 66 339 4.0 10.0 0.00 0.00 0.00 55 1020.5
20260509193032 66 2 5.0 9.0 0.00 0.00 0.00 54 1020.6
20260509191534 65 346 4.0 8.0 0.00 0.00 0.00 54 1020.7
20260509190035 65 315 4.0 9.0 0.00 0.00 0.00 55 1020.9
20260509183119 63 358 4.0 8.0 0.00 0.00 0.00 56 1021.3
20260509180028 63 16 4.0 7.0 0.00 0.00 0.00 55 1021.3
20260509174535 62 339 3.0 8.0 0.00 0.00 0.00 53 1021.3
20260509173036 61 323 3.0 8.0 0.00 0.00 0.00 57 1021.4
20260509171535 60 311 4.0 8.0 0.00 0.00 0.00 57 1021.5
20260509170037 59 353 3.0 7.0 0.00 0.00 0.00 57 1021.6
20260509164535 58 326 3.0 6.0 0.00 0.00 0.00 55 1021.7
20260509161642 56 339 2.0 5.0 0.00 0.00 0.00 59 1021.8
20260509160032 55 341 2.0 5.0 0.00 0.00 0.00 62 1021.8
20260509154536 53 348 2.0 4.0 0.00 0.00 0.00 65 1021.9
20260509153033 52 347 2.0 3.0 0.00 0.00 0.00 66 1021.8
20260509150035 50 136 1.0 3.0 0.00 0.00 0.00 69 1021.6
20260509144642 49 112 2.0 4.0 0.00 0.00 0.00 72 1021.6
20260509143032 47 129 2.0 4.0 0.00 0.00 0.00 75 1021.6
20260509141533 45 157 1.0 2.0 0.00 0.00 0.00 78 1021.5
20260509134537 41 145 4.0 6.0 0.00 0.00 0.00 84 1021.3
20260509133034 39 155 4.0 5.0 0.00 0.00 0.00 86 1021.3
20260509131536 40 150 3.0 4.0 0.00 0.00 0.00 82 1021.3
20260509130033 41 157 2.0 4.0 0.00 0.00 0.00 80 1021.0
20260509123033 42 135 2.0 4.0 0.00 0.00 0.00 81 1020.9
20260509120030 42 157 3.0 6.0 0.00 0.00 0.00 83 1020.9
20260509110110 44 128 3.0 5.0 0.00 0.00 0.00 82 1021.0
20260509104535 44 123 3.0 4.0 0.00 0.00 0.00 83 1021.0
20260509103036 44 150 3.0 8.0 0.00 0.00 0.00 83 1021.1
20260509101530 44 142 3.0 5.0 0.00 0.00 0.00 83 1021.2
20260509100035 44 130 3.0 5.0 0.00 0.00 0.00 83 1021.3
20260509094643 45 149 4.0 5.0 0.00 0.00 0.00 81 1021.4
20260509093035 46 154 3.0 6.0 0.00 0.00 0.00 80 1021.6
20260509091533 47 135 2.0 4.0 0.00 0.00 0.00 78 1021.7
20260509090108 48 159 5.0 9.0 0.00 0.00 0.00 77 1021.8
20260509084610 47 131 5.0 9.0 0.00 0.00 0.00 78 1022.0
20260509083034 46 131 4.0 8.0 0.00 0.00 0.00 80 1022.2
20260509081535 47 151 3.0 6.0 0.00 0.00 0.00 79 1022.3
20260509073108 47 152 3.0 7.0 0.00 0.00 0.00 81 1022.8
20260509070109 48 175 4.0 6.0 0.00 0.00 0.00 78 1022.8
20260509063034 52 172 2.0 5.0 0.00 0.00 0.00 71 1023.0
20260509061642 54 257 0.0 2.0 0.00 0.00 0.00 67 1022.9
20260509054532 54 47 1.0 4.0 0.00 0.00 0.00 66 1022.9
20260509051542 54 74 3.0 5.0 0.00 0.00 0.00 65 1022.8
20260509050111 55 31 2.0 4.0 0.00 0.00 0.00 64 1022.7
20260509044529 55 324 2.0 7.0 0.00 0.00 0.00 64 1022.6
20260509043036 55 291 2.0 10.0 0.00 0.00 0.00 64 1022.5
20260509041533 55 306 1.0 5.0 0.00 0.00 0.00 62 1022.4
20260509034532 56 265 1.0 8.0 0.00 0.00 0.00 60 1022.1
20260509033108 57 226 1.0 6.0 0.00 0.00 0.00 59 1021.9
20260509030034 58 276 2.0 10.0 0.00 0.00 0.00 56 1021.6
20260509024534 59 283 4.0 11.0 0.00 0.00 0.00 53 1021.5